www.pogodaiklimat.ru

Погода и климат >> Архив погоды >> Сенегал >> Диурбель


ПОГОДА в Диурбеле

  • Прогноз погоды в Диурбеле
  • Монитор погоды в Диурбеле

АРХИВ ПОГОДЫ в Диурбеле

Время (UTC), дата Ветер
(напр.,м/с)
 
Видим.   Явления Облачность Т
(С)
Тd
(С)
f
(%)
Тe
(С)
Тes
(С)
Комфортность P
(гПа)
Po
(гПа)
Тmin
(С)
Tmax
(С)
R
(мм)
R24
(мм)
S
(см)
00 16.04 С 2 8000 м ясно +21.8 +16.9 74 +26 +26 душно 1013.0 1012.0
06 16.04 С 1 8000 м ясно +19.6 +16.8 84 +23 +23 комфорт 1011.5 1010.5 +19.6
12 16.04 С 2 10 км ясно +35.2 +12.7 26 +35 +56 опасность
солнечного
удара
1011.9 1010.9
18 16.04 С 5 10 км 6/0
[Ci sp]
+39.0 +13.3 22 +39 +40 очень
жарко
1008.4 1007.4 +43.0
00 17.04 С 3 8000 м ясно +22.5 +15.9 66 +27 +27 душно 1012.0 1011.0
06 17.04 С 3 6000 м ясно +20.0 +15.7 76 +23 +23 комфорт 1011.0 1010.0 +20.0
12 17.04 С 5 10 км 3/0
[Ci sp]
+33.5 +11.7 27 +34 +43 очень
жарко
1012.3 1011.3
18 17.04 С 4 12 км ясно +37.5 +18.8 34 +42 +43 опасность
перегрева
1009.4 1008.4 +39.6
00 18.04 С 3 8000 м ясно +22.0 +16.3 70 +26 +26 душно 1012.6 1011.6
06 18.04 С 3 8000 м ясно +19.6 +17.0 85 +22 +22 комфорт 1011.8 1010.8 +19.6
12 18.04 СВ 3 10 км ясно +31.4 +16.6 41 +35 +51 опасность
солнечного
удара
1012.6 1011.6
18 18.04 С 3 10 км 6/0
[Ci sp]
+39.4 +10.3 17 +38 +39 очень
жарко
1008.5 1007.5 +40.8
00 19.04 С 3 8000 м 9/0
[Ac cast Ci sp]
+24.5 +15.1 56 +27 +27 жарко 1011.8 1010.8
06 19.04 С 2 8000 м 9/0
[Ac cast Ci sp]
+21.3 +15.3 69 +24 +24 комфорт 1010.8 1009.8 +21.3
12 19.04 С 2 10 км 6/0
[Ci sp]
+34.4 +13.8 29 +35 +53 опасность
солнечного
удара
1012.5 1011.5
18 19.04 С 5 10 км 9/0
[Ci sp]
+40.7 +9.6 16 +39 +40 очень
жарко
1008.7 1007.7 +42.2
00 20.04 С 3 8000 м 6/0
[Ac cast]
+24.0 +13.9 53 +26 +26 жарко 1011.7 1010.7
06 20.04 С 3 8000 м 8/0
[Ac cast]
+21.5 +13.8 62 +24 +24 комфорт 1010.8 1009.8 +21.5
12 20.04 С 2 10 км ясно +33.5 +14.1 31 +35 +55 опасность
солнечного
удара
1012.3 1011.3
18 20.04 С 2 10 км ясно +39.4 +12.0 20 +39 +41 очень
жарко
1008.5 1007.5 +40.8
00 21.04 С 2 8000 м ясно +22.2 +15.4 65 +26 +26 душно 1012.7 1011.7
06 21.04 С 2 8000 м ясно +20.0 +16.4 80 +23 +23 комфорт 1011.2 1010.2 +20.0
12 21.04 С 2 10 км ясно +31.3 +13.5 34 +33 +53 опасность
солнечного
удара
1012.6 1011.6
18 21.04 С 4 12 км ясно +35.2 +12.5 25 +35 +37 очень
жарко
1009.3 1008.3 +38.3
00 22.04 С 2 8000 м ясно +21.0 +16.1 74 +25 +25 комфорт 1012.6 1011.6
06 22.04 С 3 8000 м ясно +18.5 +16.9 90 +19 +19 1012.0 1011.0 +18.5
12 22.04 С 2 10 км ясно +31.0 +14.8 37 +33 +53 опасность
солнечного
удара
1012.8 1011.8
18 22.04 С 3 10 км 3/0
[Ci sp]
+33.6 +10.8 25 +33 +35 жарко 1009.2 1008.2 +35.6

 

Местоположение метеостанции Диурбель (Сенегал): широта 14.65 долгота -16.23 высота над уровнем моря 9 м.

В архиве по умолчанию представлена погода в Диурбеле за последнюю неделю. Архивные данные за месяц целиком и за предыдущие месяцы, начиная с января 2011 года, Вы можете получить, выбрав интересующий диапазон дат из раскрывающегося списка и нажав кнопку "Ввод!".


*Определитесь, кто Вы:
робот инопланетянин человек

Внимание! Время в таблицах - всемирное. Для получения местного времени необходимо прибавить поправку, которая равна 0 ч.

Смотрите также архив погоды в соседних городах и на ближайших метеорологических станциях:

Погода в Каолаке (Сенегал) (61 км)
Погода в Сапу (Гамбия) (124 км)
Погода в Кереване (Гамбия) (130 км)
Погода в Банжуле Half-Die (Гамбия) (136 км)
Погода в Дакаре (Сенегал) (137 км)
Погода в Кауере (Гамбия) (143 км)
Погода в Лингере (Сенегал) (145 км)
Погода в Женое (Гамбия) (148 км)
Погода в Банжуле (Гамбия) (153 км)
Погода в Сент-Луисе (Сенегал) (157 км)

Пояснения к столбцам:

Ветер - указаны скорость ветра в м/с - средняя за 10 мин, порывы в срок и между сроками (в фигурных скобках) и направление, откуда дует ветер: С - северный, СВ - северо-восточный, В - восточный, ЮВ - юго-восточный, Ю - южный, ЮЗ - юго-западный, З - западный, СЗ - северо-западный.
Видимость - горизонтальная дальность видимости в метрах или километрах. При видимости от 1 до 10 км при отсутствии осадков обычно наблюдается дымка, при ухудшении видимости до 1 км и менее - туман. В сухую погоду видимость может ухудшаться дымом, пылью или мглою.
Явления - указаны атмосферные явления, наблюдавшиеся в срок или в последний час перед сроком; фигурными скобками обозначены явления, наблюдавшиеся между сроками (за 1-3 часа до срока); квадратными скобками обозначены град или гололедные отложения с указанием их диаметра в мм.
Облачность - указаны через наклонную черту общая и нижняя облачность в баллах и высота нижней границы облаков в метрах; квадратными скобками обозначены формы облаков: Ci - перистые, Cs - перисто-слоистые, Cc - перисто-кучевые, Ac - высококучевые, As - высокослоистые, Sc - слоисто-кучевые, Ns - слоисто-дождевые, Cu - кучевые, Cb - кучево-дождевые. Подробнее классификацию облаков см. в Атласе облаков (PDF).
T - Температура воздуха - температура, измеренная на высоте 2 м над землей.
Td - Температура точки росы - температура, при понижении до которой содержащийся в воздухе водяной пар достигнет насыщения.
f - Относительная влажность воздуха - влажноcть воздуха, измеренная на высоте 2 м над землей.
Te - Эффективная температура - температура, которую ощущает одетый по сезону человек в тени. Характеристика душности погоды. При расчете учитывается влияние влажности воздуха и скорости ветра на теплоощущения человека.
Tes - Эффективная температура на солнце - температура, которую ощущает человек, с поправкой на солнечный нагрев. Характеристика знойности погоды. Зависит от высоты солнца над горизонтом, облачности и скорости ветра. Ночью, в пасмурную погоду, а также при ветре 12 м/с и более поправка равна нулю.
P - Атмосферное давление - приведенное к уровню моря атмосферное давление.
Po - Атмосферное давление - измеренное на уровне метеостанции атмосферное давление.
Tmin - Минимальная температура - минимум температуры воздуха на высоте 2 м над землей.
Tmax - Максимальная температура - максимум температуры воздуха на высоте 2 м над землей.
R - Количество осадков - Количество выпавших осадков за период времени, мм. При наведении курсора мыши на число - период времени, за который выпало указанное количество осадков.
R24 - Количество осадков - Количество выпавших осадков за 24 часа, мм.
S - Снежный покров - Высота снежного покрова, см. При наведении курсора мыши на число - состояние снежного покрова и степень покрытия местности в баллах.